| time (UTC) | temp F | wind direction | speed knots | gust knots | rain 1hr in | rain 24hr in | rain mn in | humidity % | barometer mb |
| 20260506181349 | 69 | 212 | 3.5 | 7.8 | 0.00 | 0.00 | 0.00 | 70 | 1006.5 |
| 20260506180831 | 70 | 225 | 6.1 | 16.5 | 0.00 | 0.00 | 0.00 | 66 | 1006.5 |
| 20260506175351 | 70 | 211 | 5.2 | 16.5 | 0.00 | 0.00 | 0.00 | 65 | 1006.5 |
| 20260506174348 | 71 | 301 | 6.1 | 16.5 | 0.00 | 0.00 | 0.00 | 63 | 1006.5 |
| 20260506173347 | 72 | 208 | 6.1 | 13.9 | 0.00 | 0.00 | 0.00 | 61 | 1006.5 |
| 20260506172345 | 72 | 301 | 4.3 | 14.8 | 0.00 | 0.00 | 0.00 | 60 | 1006.5 |
| 20260506171346 | 72 | 126 | 3.5 | 10.4 | 0.00 | 0.00 | 0.00 | 61 | 1006.5 |
| 20260506170346 | 72 | 199 | 4.3 | 9.6 | 0.00 | 0.00 | 0.00 | 62 | 1006.5 |
| 20260506165344 | 72 | 208 | 3.5 | 9.6 | 0.00 | 0.00 | 0.00 | 63 | 1006.7 |
| 20260506164344 | 71 | 301 | 4.3 | 13.0 | 0.00 | 0.00 | 0.00 | 64 | 1007.0 |
| 20260506163343 | 70 | 233 | 5.2 | 10.4 | 0.00 | 0.00 | 0.00 | 64 | 1007.0 |
| 20260506162341 | 70 | 218 | 5.2 | 13.0 | 0.00 | 0.00 | 0.00 | 64 | 1007.2 |
| 20260506161342 | 70 | 226 | 6.1 | 12.2 | 0.00 | 0.00 | 0.00 | 65 | 1007.5 |
| 20260506160341 | 70 | 232 | 4.3 | 14.8 | 0.00 | 0.00 | 0.00 | 66 | 1007.5 |
| 20260506155816 | 69 | 190 | 4.3 | 10.4 | 0.00 | 0.00 | 0.00 | 67 | 1007.7 |
| 20260506154341 | 69 | 219 | 4.3 | 13.0 | 0.00 | 0.00 | 0.00 | 68 | 1008.0 |
| 20260506153342 | 69 | 301 | 4.3 | 12.2 | 0.00 | 0.00 | 0.00 | 69 | 1008.0 |
| 20260506153316 | 69 | 301 | 3.5 | 11.3 | 0.00 | 0.00 | 0.00 | 70 | 1008.2 |
| 20260506151339 | 68 | 301 | 5.2 | 11.3 | 0.00 | 0.00 | 0.00 | 69 | 1008.4 |
| 20260506150339 | 68 | 301 | 4.3 | 11.3 | 0.00 | 0.00 | 0.00 | 70 | 1008.4 |
| 20260506145818 | 68 | 301 | 4.3 | 11.3 | 0.00 | 0.00 | 0.00 | 70 | 1008.6 |
| 20260506144339 | 68 | 148 | 4.3 | 11.3 | 0.00 | 0.00 | 0.00 | 70 | 1008.5 |
| 20260506143340 | 68 | 301 | 4.3 | 10.4 | 0.00 | 0.00 | 0.00 | 69 | 1008.5 |
| 20260506142341 | 68 | 220 | 4.3 | 11.3 | 0.00 | 0.00 | 0.00 | 71 | 1008.2 |
| 20260506141326 | 68 | 195 | 5.2 | 13.9 | 0.00 | 0.00 | 0.00 | 71 | 1008.1 |
| 20260506140325 | 68 | 230 | 5.2 | 13.9 | 0.00 | 0.00 | 0.00 | 73 | 1008.1 |
| 20260506135325 | 67 | 301 | 4.3 | 13.9 | 0.00 | 0.00 | 0.00 | 73 | 1008.2 |
| 20260506134326 | 67 | 301 | 4.3 | 12.2 | 0.00 | 0.00 | 0.00 | 74 | 1008.5 |
| 20260506133326 | 66 | 247 | 4.3 | 11.3 | 0.00 | 0.00 | 0.00 | 74 | 1008.5 |
| 20260506132327 | 65 | 218 | 6.1 | 13.0 | 0.00 | 0.00 | 0.00 | 76 | 1008.7 |
| 20260506131325 | 65 | 143 | 4.3 | 11.3 | 0.00 | 0.00 | 0.00 | 76 | 1008.9 |
| 20260506130326 | 64 | 245 | 4.3 | 11.3 | 0.00 | 0.00 | 0.00 | 76 | 1008.9 |
| 20260506125324 | 64 | 231 | 5.2 | 12.2 | 0.00 | 0.00 | 0.00 | 77 | 1008.8 |
| 20260506124323 | 64 | 183 | 6.1 | 13.9 | 0.00 | 0.00 | 0.00 | 77 | 1008.6 |
| 20260506123324 | 63 | 301 | 5.2 | 12.2 | 0.00 | 0.00 | 0.00 | 78 | 1008.6 |
| 20260506122322 | 62 | 301 | 4.3 | 9.6 | 0.00 | 0.00 | 0.00 | 79 | 1008.7 |
| 20260506121321 | 62 | 301 | 4.3 | 12.2 | 0.00 | 0.00 | 0.00 | 79 | 1008.8 |
| 20260506120321 | 62 | 219 | 5.2 | 13.0 | 0.00 | 0.00 | 0.00 | 79 | 1008.8 |
| 20260506115322 | 61 | 301 | 4.3 | 11.3 | 0.00 | 0.00 | 0.00 | 81 | 1009.2 |
| 20260506114322 | 61 | 194 | 3.5 | 8.7 | 0.00 | 0.00 | 0.00 | 81 | 1009.2 |
| 20260506113314 | 60 | 211 | 3.5 | 9.6 | 0.00 | 0.00 | 0.00 | 81 | 1009.2 |
| 20260506112756 | 60 | 183 | 3.5 | 8.7 | 0.00 | 0.00 | 0.00 | 81 | 1009.4 |
| 20260506111315 | 60 | 198 | 3.5 | 8.7 | 0.00 | 0.00 | 0.00 | 81 | 1009.2 |
| 20260506110746 | 60 | 202 | 3.5 | 8.7 | 0.00 | 0.00 | 0.00 | 82 | 1009.2 |
| 20260506105316 | 59 | 209 | 3.5 | 11.3 | 0.00 | 0.00 | 0.00 | 83 | 1009.2 |
| 20260506104801 | 59 | 187 | 3.5 | 8.7 | 0.00 | 0.00 | 0.00 | 83 | 1009.2 |
| 20260506103315 | 58 | 198 | 3.5 | 6.1 | 0.00 | 0.00 | 0.00 | 83 | 1009.2 |
| 20260506102313 | 58 | 196 | 3.5 | 7.8 | 0.00 | 0.00 | 0.00 | 82 | 1009.1 |
| 20260506101313 | 59 | 180 | 2.6 | 7.0 | 0.00 | 0.00 | 0.00 | 81 | 1009.2 |
| 20260506100314 | 59 | 199 | 2.6 | 9.6 | 0.00 | 0.00 | 0.00 | 81 | 1009.2 |
| 20260506095310 | 59 | 191 | 2.6 | 7.0 | 0.00 | 0.00 | 0.00 | 80 | 1009.2 |
| 20260506094312 | 59 | 213 | 3.5 | 7.8 | 0.00 | 0.00 | 0.00 | 80 | 1008.8 |
| 20260506093311 | 59 | 222 | 3.5 | 8.7 | 0.00 | 0.00 | 0.00 | 80 | 1008.8 |
| 20260506092802 | 60 | 195 | 3.5 | 9.6 | 0.00 | 0.00 | 0.00 | 79 | 1009.1 |
| 20260506091754 | 60 | 198 | 3.5 | 9.6 | 0.00 | 0.00 | 0.00 | 79 | 1009.1 |
| 20260506090310 | 60 | 170 | 3.5 | 6.1 | 0.00 | 0.00 | 0.00 | 78 | 1009.1 |
| 20260506085305 | 60 | 225 | 4.3 | 9.6 | 0.00 | 0.00 | 0.00 | 78 | 1009.1 |
| 20260506084303 | 60 | 199 | 3.5 | 7.8 | 0.00 | 0.00 | 0.00 | 78 | 1009.1 |
| 20260506083742 | 60 | 208 | 4.3 | 14.8 | 0.00 | 0.00 | 0.00 | 77 | 1009.1 |
| 20260506082304 | 61 | 211 | 3.5 | 9.6 | 0.00 | 0.00 | 0.00 | 77 | 1009.1 |
| 20260506081301 | 61 | 212 | 4.3 | 14.8 | 0.00 | 0.00 | 0.00 | 77 | 1009.0 |
| 20260506080301 | 61 | 230 | 3.5 | 7.8 | 0.00 | 0.00 | 0.00 | 76 | 1009.0 |
| 20260506073301 | 62 | 139 | 3.5 | 8.7 | 0.00 | 0.00 | 0.00 | 75 | 1009.1 |
| 20260506072305 | 62 | 204 | 4.3 | 9.6 | 0.00 | 0.00 | 0.00 | 74 | 1008.9 |
| 20260506071301 | 62 | 153 | 4.3 | 12.2 | 0.00 | 0.00 | 0.00 | 73 | 1008.7 |
| 20260506070259 | 62 | 242 | 3.5 | 10.4 | 0.00 | 0.00 | 0.00 | 73 | 1008.7 |
| 20260506062244 | 63 | 188 | 5.2 | 12.2 | 0.00 | 0.00 | 0.00 | 70 | 1008.6 |
| 20260506061245 | 63 | 219 | 5.2 | 13.0 | 0.00 | 0.00 | 0.00 | 70 | 1008.4 |
| 20260506060245 | 63 | 202 | 4.3 | 10.4 | 0.00 | 0.00 | 0.00 | 69 | 1008.4 |
| 20260506051238 | 63 | 189 | 5.2 | 13.0 | 0.00 | 0.00 | 0.00 | 68 | 1008.8 |
| 20260506050238 | 63 | 169 | 4.3 | 10.4 | 0.00 | 0.00 | 0.00 | 68 | 1008.8 |
| 20260506050151 | 63 | 201 | 3.5 | 8.7 | 0.00 | 0.00 | 0.00 | 69 | 1008.8 |
| 20260506044234 | 63 | 170 | 4.3 | 12.2 | 0.00 | 0.00 | 0.00 | 68 | 1009.0 |
| 20260506043232 | 63 | 222 | 3.5 | 10.4 | 0.00 | 0.00 | 0.00 | 68 | 1009.0 |
| 20260506042233 | 63 | 212 | 3.5 | 7.8 | 0.00 | 0.00 | 0.00 | 68 | 1009.0 |
| 20260506041233 | 63 | 197 | 4.3 | 12.2 | 0.00 | 0.00 | 0.00 | 67 | 1009.0 |
| 20260506040231 | 63 | 200 | 3.5 | 10.4 | 0.00 | 0.00 | 0.00 | 67 | 1009.0 |
| 20260506035229 | 63 | 243 | 4.3 | 11.3 | 0.00 | 0.00 | 0.00 | 66 | 1008.9 |
| 20260506034229 | 63 | 196 | 3.5 | 9.6 | 0.00 | 0.00 | 0.00 | 66 | 1009.0 |
| 20260506033713 | 64 | 207 | 3.5 | 11.3 | 0.00 | 0.00 | 0.00 | 65 | 1009.0 |
| 20260506032231 | 64 | 200 | 4.3 | 10.4 | 0.00 | 0.00 | 0.00 | 65 | 1008.9 |
| 20260506031225 | 64 | 239 | 4.3 | 8.7 | 0.00 | 0.00 | 0.00 | 64 | 1008.9 |
| 20260506030225 | 65 | 216 | 4.3 | 10.4 | 0.00 | 0.00 | 0.00 | 64 | 1008.9 |
| 20260506030139 | 65 | 240 | 5.2 | 13.0 | 0.00 | 0.00 | 0.00 | 63 | 1009.1 |
| 20260506025200 | 65 | 170 | 3.5 | 10.4 | 0.00 | 0.00 | 0.00 | 63 | 1009.0 |
| 20260506023708 | 65 | 238 | 3.5 | 7.8 | 0.00 | 0.00 | 0.00 | 62 | 1009.0 |
| 20260506022221 | 66 | 191 | 3.5 | 8.7 | 0.00 | 0.00 | 0.00 | 62 | 1009.0 |
| 20260506021221 | 67 | 192 | 3.5 | 7.0 | 0.00 | 0.00 | 0.00 | 61 | 1009.0 |
| 20260506020222 | 67 | 182 | 4.3 | 10.4 | 0.00 | 0.00 | 0.00 | 60 | 1009.0 |
| 20260506015222 | 67 | 211 | 3.5 | 7.8 | 0.00 | 0.00 | 0.00 | 60 | 1008.7 |
| 20260506014219 | 68 | 195 | 3.5 | 8.7 | 0.00 | 0.00 | 0.00 | 58 | 1008.7 |
| 20260506013221 | 68 | 215 | 4.3 | 10.4 | 0.00 | 0.00 | 0.00 | 58 | 1008.7 |
| 20260506012219 | 69 | 194 | 3.5 | 12.2 | 0.00 | 0.00 | 0.00 | 57 | 1008.7 |
| 20260506011656 | 69 | 220 | 3.5 | 9.6 | 0.00 | 0.00 | 0.00 | 56 | 1008.1 |
| 20260506010219 | 69 | 216 | 5.2 | 11.3 | 0.00 | 0.00 | 0.00 | 56 | 1008.1 |
| 20260506005707 | 69 | 301 | 5.2 | 12.2 | 0.00 | 0.00 | 0.00 | 55 | 1008.0 |
| 20260506004220 | 70 | 301 | 5.2 | 11.3 | 0.00 | 0.00 | 0.00 | 55 | 1007.6 |
| 20260506003211 | 70 | 174 | 5.2 | 12.2 | 0.00 | 0.00 | 0.00 | 54 | 1007.6 |
| 20260506002209 | 70 | 217 | 3.5 | 6.1 | 0.00 | 0.00 | 0.00 | 54 | 1007.1 |
| 20260506001209 | 71 | 158 | 4.3 | 9.6 | 0.00 | 0.00 | 0.00 | 53 | 1007.1 |
| 20260506000211 | 71 | 202 | 4.3 | 11.3 | 0.00 | 0.00 | 0.00 | 52 | 1007.1 |
| 20260505235209 | 72 | 301 | 4.3 | 10.4 | 0.00 | 0.00 | 0.00 | 52 | 1006.8 |
| 20260505234211 | 72 | 206 | 5.2 | 16.5 | 0.00 | 0.00 | 0.00 | 51 | 1006.5 |
| 20260505233204 | 73 | 212 | 5.2 | 10.4 | 0.00 | 0.00 | 0.00 | 51 | 1006.5 |
| 20260505232204 | 73 | 187 | 4.3 | 13.9 | 0.00 | 0.00 | 0.00 | 51 | 1006.3 |
| 20260505231203 | 74 | 187 | 4.3 | 9.6 | 0.00 | 0.00 | 0.00 | 50 | 1006.1 |
| 20260505230203 | 75 | 223 | 4.3 | 11.3 | 0.00 | 0.00 | 0.00 | 49 | 1006.1 |
| 20260505230121 | 75 | 193 | 5.2 | 18.2 | 0.00 | 0.00 | 0.00 | 48 | 1006.0 |
| 20260505224204 | 76 | 203 | 7.8 | 20.0 | 0.00 | 0.00 | 0.00 | 46 | 1005.5 |
| 20260505223152 | 76 | 224 | 7.0 | 13.0 | 0.00 | 0.00 | 0.00 | 45 | 1005.5 |
| 20260505222153 | 77 | 240 | 6.1 | 19.1 | 0.00 | 0.00 | 0.00 | 45 | 1005.1 |
| 20260505221153 | 78 | 181 | 7.0 | 13.9 | 0.00 | 0.00 | 0.00 | 44 | 1004.9 |
| 20260505220153 | 78 | 216 | 7.0 | 18.2 | 0.00 | 0.00 | 0.00 | 43 | 1004.9 |
| 20260505215153 | 78 | 237 | 6.1 | 17.4 | 0.00 | 0.00 | 0.00 | 43 | 1005.0 |
| 20260505214153 | 79 | 198 | 7.8 | 24.3 | 0.00 | 0.00 | 0.00 | 41 | 1005.0 |
| 20260505213153 | 79 | 208 | 7.8 | 19.1 | 0.00 | 0.00 | 0.00 | 39 | 1005.0 |
| 20260505212151 | 80 | 203 | 7.8 | 20.9 | 0.00 | 0.00 | 0.00 | 39 | 1004.8 |
| 20260505211629 | 80 | 198 | 7.0 | 15.6 | 0.00 | 0.00 | 0.00 | 37 | 1004.5 |
| 20260505210148 | 81 | 193 | 7.0 | 17.4 | 0.00 | 0.00 | 0.00 | 37 | 1004.5 |
| 20260505205144 | 81 | 164 | 6.1 | 17.4 | 0.00 | 0.00 | 0.00 | 37 | 1004.5 |
| 20260505204145 | 81 | 198 | 7.8 | 19.1 | 0.00 | 0.00 | 0.00 | 36 | 1004.5 |
| 20260505203634 | 82 | 222 | 6.1 | 20.0 | 0.00 | 0.00 | 0.00 | 35 | 1004.5 |
| 20260505202146 | 82 | 272 | 4.3 | 9.6 | 0.00 | 0.00 | 0.00 | 37 | 1004.5 |
| 20260505201620 | 82 | 264 | 5.2 | 13.0 | 0.00 | 0.00 | 0.00 | 36 | 1004.8 |
| 20260505200623 | 82 | 214 | 6.1 | 14.8 | 0.00 | 0.00 | 0.00 | 37 | 1004.8 |
| 20260505195141 | 82 | 220 | 6.1 | 15.6 | 0.00 | 0.00 | 0.00 | 36 | 1004.6 |
| 20260505194140 | 82 | 204 | 7.0 | 20.9 | 0.00 | 0.00 | 0.00 | 37 | 1004.6 |
| 20260505193142 | 82 | 191 | 7.0 | 14.8 | 0.00 | 0.00 | 0.00 | 39 | 1004.6 |
| 20260505192140 | 82 | 207 | 6.1 | 16.5 | 0.00 | 0.00 | 0.00 | 40 | 1005.0 |
| 20260505191142 | 82 | 229 | 7.0 | 17.4 | 0.00 | 0.00 | 0.00 | 41 | 1005.1 |
| 20260505190140 | 81 | 216 | 7.8 | 16.5 | 0.00 | 0.00 | 0.00 | 40 | 1005.1 |
| 20260505185139 | 82 | 201 | 7.8 | 19.1 | 0.00 | 0.00 | 0.00 | 38 | 1005.3 |
| 20260505184140 | 82 | 193 | 7.0 | 20.9 | 0.00 | 0.00 | 0.00 | 40 | 1005.7 |
| 20260505183139 | 82 | 247 | 7.8 | 17.4 | 0.00 | 0.00 | 0.00 | 40 | 1005.7 |